CW2670 Weather Reports


Display with metric or nautical units.
time (UTC)temp
F
wind
direction
speed
MPH
gust
MPH
rain 1hr
in
rain 24hr
in
rain mn
in
humidity
%
barometer
mb
20260905154935 83 196 1.0 5.0 0.00 0.00 0.00 70 1014.1
20260905144934 80 66 1.0 7.0 0.00 0.00 0.00 77 1014.2
20260905134934 77 82 1.0 8.0 0.00 0.00 0.00 88 1014.3
20260905124934 75 81 3.0 7.0 0.00 0.00 0.00 92 1014.3
20260905104933 74 40 0.0 2.0 0.00 0.00 0.00 91 1012.8
20260905094933 74 299 0.0 1.0 0.00 0.00 0.00 90 1013.0
20260905084933 75 297 0.0 2.0 0.00 0.00 0.00 90 1012.7
20260905074933 76 294 0.0 1.0 0.00 0.00 0.00 90 1012.4
20260905054932 77 263 0.0 1.0 0.00 0.00 0.00 88 1013.4
20260905044932 77 262 0.0 1.0 0.00 0.00 0.00 87 1013.7
20260905034932 79 263 1.0 1.0 0.00 0.00 0.00 85 1013.6
20260905024931 80 262 0.0 1.0 0.00 0.00 0.00 83 1013.5
20260905014931 82 262 0.0 1.0 0.00 0.00 0.00 80 1013.1
20260905004931 85 182 0.0 1.0 0.00 0.00 0.00 76 1012.6
20260904234931 90 180 0.0 1.0 0.00 0.00 0.00 68 1012.3
20260904224933 96 180 0.0 4.0 0.00 0.00 0.00 56 1012.5
20260904214933 99 281 1.0 5.0 0.00 0.00 0.00 48 1012.8
20260904194933 99 227 1.0 8.0 0.00 0.00 0.00 51 1014.0
20260904174932 96 298 4.0 9.0 0.00 0.00 0.00 57 1015.6
20260904164932 94 275 3.0 8.0 0.00 0.00 0.00 61 1016.0